FDB1440 OMDB-VOHS

Flight info

Callsign FDB1440
Flight time N/A
Altitude 35000
Route IVURO M677 LALDO B505 NADSO A777 VAXIM P307 PARAR N571 SUGID/N0454F370 DCT AROTA DCT BBB W28 PONIP NAMSA6
Aircraft B738/M-SDE2E3FGHIRWXY/LB1

Departure

Time N/A
Airport Dubai International Airport (OMDB)

Arrival

Time 2026-05-04 01:03
Airport Rajiv Gandhi International Airport (VOHS)
Time Latitude Longitude Altitude Speed Heading
2026-05-04 00:23 17.27335 77.58437 19871 ft 370 kts 92°
2026-05-04 00:24 17.27190 77.61116 19520 ft 368 kts 92°
2026-05-04 00:24 17.27046 77.63778 19177 ft 365 kts 92°
2026-05-04 00:24 17.26903 77.66423 18835 ft 363 kts 92°
2026-05-04 00:24 17.26760 77.69054 18499 ft 361 kts 92°
2026-05-04 00:25 17.26617 77.71669 18133 ft 359 kts 92°
2026-05-04 00:25 17.26473 77.74271 17748 ft 357 kts 93°
2026-05-04 00:25 17.26148 77.76812 17605 ft 348 kts 100°
2026-05-04 00:25 17.25643 77.79275 17306 ft 344 kts 102°
2026-05-04 00:26 17.25091 77.81698 16988 ft 341 kts 103°
2026-05-04 00:26 17.24540 77.84105 16655 ft 339 kts 103°
2026-05-04 00:26 17.24003 77.86492 16322 ft 336 kts 102°
2026-05-04 00:26 17.23480 77.88872 15993 ft 334 kts 102°
2026-05-04 00:27 17.22969 77.91236 15667 ft 332 kts 102°
2026-05-04 00:27 17.22465 77.93593 15339 ft 330 kts 102°
2026-05-04 00:27 17.21969 77.95930 15020 ft 328 kts 103°
2026-05-04 00:27 17.21475 77.98260 14693 ft 327 kts 103°
2026-05-04 00:28 17.20987 78.00570 14369 ft 325 kts 103°
2026-05-04 00:28 17.20498 78.02881 14046 ft 324 kts 103°
2026-05-04 00:28 17.20012 78.05180 13708 ft 323 kts 103°
2026-05-04 00:28 17.19528 78.07469 13343 ft 322 kts 103°
2026-05-04 00:29 17.19052 78.09717 13015 ft 320 kts 102°
2026-05-04 00:29 17.18567 78.12008 12689 ft 318 kts 102°
2026-05-04 00:29 17.18096 78.14230 12368 ft 316 kts 102°
2026-05-04 00:29 17.17617 78.16492 12044 ft 314 kts 102°
2026-05-04 00:30 17.17151 78.18688 11736 ft 312 kts 102°
2026-05-04 00:30 17.16681 78.20906 11415 ft 310 kts 102°
2026-05-04 00:30 17.16215 78.23103 11101 ft 309 kts 102°
2026-05-04 00:30 17.15753 78.25276 10787 ft 307 kts 102°
2026-05-04 00:31 17.15291 78.27451 10488 ft 306 kts 102°
2026-05-04 00:31 17.14831 78.29615 10195 ft 304 kts 101°
2026-05-04 00:31 17.14378 78.31742 10068 ft 296 kts 101°
2026-05-04 00:31 17.13984 78.33820 9907 ft 288 kts 94°
2026-05-04 00:32 17.13970 78.35908 9610 ft 286 kts 86°
2026-05-04 00:32 17.14082 78.37979 9305 ft 285 kts 85°
2026-05-04 00:32 17.14192 78.40041 9031 ft 284 kts 86°
2026-05-04 00:32 17.14277 78.42098 8742 ft 283 kts 87°
2026-05-04 00:33 17.14340 78.44148 8455 ft 282 kts 87°
2026-05-04 00:33 17.14431 78.48231 7885 ft 280 kts 88°
2026-05-04 00:33 17.14472 78.50253 7730 ft 274 kts 88°
2026-05-04 00:34 17.14510 78.52221 7594 ft 268 kts 88°
2026-05-04 00:34 17.14547 78.54116 7551 ft 253 kts 88°
2026-05-04 00:34 17.14582 78.55903 7464 ft 239 kts 88°
2026-05-04 00:34 17.14615 78.57589 7358 ft 225 kts 88°
2026-05-04 00:35 17.14646 78.59179 7220 ft 214 kts 88°
2026-05-04 00:35 17.14676 78.60722 6992 ft 211 kts 88°
2026-05-04 00:35 17.14705 78.62239 6784 ft 206 kts 88°
2026-05-04 00:35 17.14773 78.63743 6496 ft 205 kts 82°
2026-05-04 00:36 17.15256 78.65088 6258 ft 196 kts 46°
2026-05-04 00:36 17.16352 78.65847 6074 ft 189 kts 14°
2026-05-04 00:36 17.17635 78.66008 5907 ft 187 kts 359°
2026-05-04 00:36 17.18945 78.65987 5707 ft 189 kts 352°
2026-05-04 00:37 17.20126 78.65466 5505 ft 186 kts 316°
2026-05-04 00:37 17.20847 78.64360 5332 ft 185 kts 299°
2026-05-04 00:37 17.21460 78.63173 5126 ft 186 kts 299°
2026-05-04 00:37 17.22073 78.61978 4928 ft 187 kts 299°
2026-05-04 00:38 17.22686 78.60781 4729 ft 186 kts 299°
2026-05-04 00:38 17.23117 78.59526 4489 ft 185 kts 274°
2026-05-04 00:38 17.23094 78.58202 4332 ft 179 kts 270°
2026-05-04 00:38 17.23075 78.56915 4095 ft 175 kts 270°
2026-05-04 00:39 17.23058 78.55665 3861 ft 170 kts 270°
2026-05-04 00:39 17.23041 78.54426 3779 ft 167 kts 269°
2026-05-04 00:39 17.23024 78.53235 3759 ft 163 kts 270°
2026-05-04 00:39 17.23008 78.52064 3714 ft 160 kts 269°
2026-05-04 00:40 17.22992 78.50903 3641 ft 160 kts 269°
2026-05-04 00:40 17.22976 78.49721 3242 ft 164 kts 269°
2026-05-04 00:40 17.22982 78.48534 2813 ft 162 kts 269°
2026-05-04 00:40 17.22987 78.47378 2465 ft 156 kts 265°
2026-05-04 00:41 17.22917 78.46252 2277 ft 156 kts 267°
2026-05-04 00:41 17.22906 78.45116 2058 ft 153 kts 268°
2026-05-04 00:41 17.22895 78.44092 1998 ft 128 kts 268°
2026-05-04 00:41 17.22859 78.43246 1989 ft 111 kts 264°
2026-05-04 00:42 17.22840 78.42268 2197 ft 153 kts 269°
2026-05-04 00:42 17.22828 78.41070 2903 ft 173 kts 267°
2026-05-04 00:42 17.22519 78.39708 3087 ft 223 kts 237°
2026-05-04 00:42 17.21219 78.38724 2752 ft 245 kts 188°
2026-05-04 00:43 17.19722 78.39082 3424 ft 208 kts 160°
2026-05-04 00:43 17.18349 78.39641 4049 ft 221 kts 160°
2026-05-04 00:43 17.16821 78.40271 3783 ft 247 kts 154°
2026-05-04 00:43 17.15420 78.41223 3617 ft 244 kts 139°
2026-05-04 00:44 17.14284 78.42621 3297 ft 243 kts 122°
2026-05-04 00:44 17.13517 78.44111 3458 ft 227 kts 114°
2026-05-04 00:44 17.13043 78.45675 3364 ft 225 kts 103°
2026-05-04 00:44 17.12714 78.47220 3740 ft 228 kts 105°
2026-05-04 00:45 17.12496 78.48922 4319 ft 237 kts 86°
2026-05-04 00:45 17.12629 78.50633 5088 ft 238 kts 82°
2026-05-04 00:45 17.12818 78.52354 5439 ft 238 kts 81°
2026-05-04 00:45 17.13045 78.54071 5503 ft 239 kts 79°
2026-05-04 00:46 17.13298 78.55789 5511 ft 239 kts 79°
2026-05-04 00:46 17.13569 78.57506 5505 ft 240 kts 78°
2026-05-04 00:46 17.13853 78.59223 5509 ft 239 kts 78°
2026-05-04 00:46 17.14145 78.60935 5510 ft 240 kts 78°
2026-05-04 00:47 17.14440 78.62653 5509 ft 240 kts 78°
2026-05-04 00:47 17.14736 78.64365 5514 ft 239 kts 78°
2026-05-04 00:47 17.15028 78.66079 5512 ft 239 kts 80°
2026-05-04 00:47 17.14881 78.67800 5521 ft 241 kts 108°
2026-05-04 00:48 17.14293 78.69437 5501 ft 241 kts 112°
2026-05-04 00:48 17.13635 78.71037 5494 ft 238 kts 126°
2026-05-04 00:48 17.12427 78.72143 5505 ft 230 kts 158°
2026-05-04 00:48 17.10897 78.72552 5504 ft 227 kts 178°
2026-05-04 00:49 17.09321 78.72582 5505 ft 227 kts 182°
2026-05-04 00:49 17.07765 78.72404 5489 ft 225 kts 201°
2026-05-04 00:49 17.06487 78.71509 5501 ft 223 kts 227°
2026-05-04 00:49 17.05735 78.70103 5491 ft 225 kts 253°
2026-05-04 00:50 17.05710 78.68470 5512 ft 229 kts 282°
2026-05-04 00:50 17.06452 78.67018 5511 ft 228 kts 314°
2026-05-04 00:50 17.07779 78.66148 5514 ft 226 kts 341°
2026-05-04 00:50 17.09332 78.65938 5516 ft 226 kts 359°
2026-05-04 00:51 17.10897 78.65958 5505 ft 223 kts 359°
2026-05-04 00:51 17.12397 78.65979 5486 ft 207 kts 359°
2026-05-04 00:51 17.13773 78.65996 5486 ft 189 kts 359°
2026-05-04 00:51 17.15066 78.66015 5504 ft 184 kts
2026-05-04 00:52 17.16288 78.66412 5519 ft 187 kts 27°
2026-05-04 00:52 17.17292 78.67297 5510 ft 193 kts 50°
2026-05-04 00:52 17.17882 78.68547 5507 ft 197 kts 77°
2026-05-04 00:52 17.17898 78.69967 5509 ft 196 kts 107°
2026-05-04 00:53 17.17319 78.71231 5504 ft 193 kts 133°
2026-05-04 00:53 17.16302 78.72111 5514 ft 190 kts 154°
2026-05-04 00:53 17.15064 78.72548 5505 ft 188 kts 176°
2026-05-04 00:53 17.13763 78.72595 5511 ft 188 kts 182°
2026-05-04 00:54 17.12454 78.72580 5511 ft 189 kts 183°
2026-05-04 00:54 17.11134 78.72562 5515 ft 194 kts 182°
2026-05-04 00:54 17.09758 78.72546 5516 ft 201 kts 182°
2026-05-04 00:54 17.08364 78.72509 5499 ft 200 kts 189°
2026-05-04 00:55 17.07118 78.71973 5513 ft 193 kts 216°
2026-05-04 00:55 17.06193 78.70975 5495 ft 192 kts 237°
2026-05-04 00:55 17.05740 78.69672 5496 ft 193 kts 262°
2026-05-04 00:55 17.05866 78.68259 5519 ft 201 kts 288°
2026-05-04 00:56 17.06593 78.67028 5517 ft 199 kts 317°
2026-05-04 00:56 17.07726 78.66245 5501 ft 195 kts 338°
2026-05-04 00:56 17.09037 78.65977 5507 ft 192 kts 358°
2026-05-04 00:56 17.10386 78.65983 5521 ft 196 kts 359°
2026-05-04 00:57 17.11774 78.65991 5517 ft 199 kts 359°
2026-05-04 00:57 17.12690 78.65998 5512 ft 198 kts 359°
2026-05-04 00:57 17.14066 78.66008 5498 ft 197 kts 359°
2026-05-04 00:57 17.15425 78.66052 5501 ft 196 kts
2026-05-04 00:58 17.16676 78.66593 5529 ft 195 kts 21°
2026-05-04 00:58 17.17990 78.66653 5520 ft 194 kts 334°
2026-05-04 00:58 17.18926 78.65652 5524 ft 199 kts 296°
2026-05-04 00:58 17.19607 78.64393 5515 ft 200 kts 309°
2026-05-04 00:59 17.20480 78.63260 5518 ft 201 kts 310°
2026-05-04 00:59 17.21400 78.62100 5091 ft 214 kts 311°
2026-05-04 00:59 17.22363 78.60927 4775 ft 211 kts 310°
2026-05-04 00:59 17.23011 78.59577 4523 ft 208 kts 285°
2026-05-04 01:00 17.23132 78.58094 4295 ft 203 kts 270°
2026-05-04 01:00 17.23096 78.56637 4046 ft 199 kts 270°
2026-05-04 01:00 17.23068 78.55198 3797 ft 196 kts 270°
2026-05-04 01:00 17.23044 78.53794 3563 ft 189 kts 269°
2026-05-04 01:01 17.23021 78.52499 3330 ft 173 kts 269°
2026-05-04 01:01 17.23002 78.51299 3085 ft 160 kts 269°
2026-05-04 01:01 17.22985 78.50168 2865 ft 153 kts 268°
2026-05-04 01:01 17.22969 78.49059 2682 ft 153 kts 268°
2026-05-04 01:02 17.22953 78.47945 2482 ft 153 kts 268°
2026-05-04 01:02 17.22937 78.46834 2302 ft 151 kts 268°
2026-05-04 01:02 17.22914 78.45737 2147 ft 151 kts 268°
2026-05-04 01:02 17.22906 78.44659 2009 ft 141 kts 268°
2026-05-04 01:03 17.22889 78.43746 1991 ft 102 kts 270°
2026-05-04 01:03 17.22878 78.43192 1985 ft 53 kts 268°
2026-05-04 01:03 17.22875 78.42848 1979 ft 45 kts 271°
2026-05-04 01:03 17.22933 78.42567 1979 ft 37 kts 297°
2026-05-04 01:04 17.23031 78.42383 1976 ft 25 kts 299°
2026-05-04 01:04 17.23121 78.42239 1973 ft 23 kts 334°
2026-05-04 01:04 17.23239 78.42181 1972 ft 0 kts 278°